Wind_Speed
25 24 23 22 21 21 20 19 17 15 14 13 11 10 9 8 8 8 8 7 7 6 6 6 5 5 5 4 4 4 4 4 4 4 5 5 6 6 6 6 6 6 7
30 28 28 26 25 24 23 22 21 19 18 16 15 14 13 11 10 10 9 9 9 8 8 8 7 7 7 6 6 7 7 7 7 8 8 8 8 9 9 9 10 10 10
34 33 32 30 28 27 26 25 24 22 21 19 18 17 16 15 14 13 12 12 11 11 10 10 9 9 9 9 9 9 10 10 10 11 11 11 11 12 12 12 12 13 13
38 37 35 34 32 30 29 27 26 25 24 22 21 20 19 19 18 17 16 15 14 14 13 13 12 12 12 12 12 12 12 12 13 13 14 14 14 14 15 15 15 15 15
38 39 38 36 35 33 32 31 29 28 27 25 24 23 22 21 21 20 19 18 17 17 17 16 15 15 14 14 14 14 15 15 15 15 16 16 16 17 17 17 18 18 18
40 39 38 37 37 36 34 33 32 31 30 28 27 26 25 24 23 23 22 21 20 20 19 19 18 18 17 17 17 17 17 17 17 18 18 18 19 19 19 19 20 20 20
44 43 40 38 38 36 35 34 33 32 32 30 29 27 26 26 25 25 24 24 23 22 21 21 20 20 20 20 20 20 20 20 20 20 20 21 21 21 21 21 21 22 22
44 43 42 40 38 36 35 33 32 31 30 30 29 28 26 26 27 26 27 26 26 25 24 24 23 22 22 22 23 23 22 22 22 22 23 23 23 23 23 23 23 23 24
44 43 41 40 38 37 35 33 32 31 31 29 29 28 26 25 27 27 27 27 27 26 26 26 25 24 24 24 24 24 24 24 24 24 24 25 25 25 25 25 25 25 25
43 41 42 41 39 37 36 33 32 31 30 29 28 28 27 26 26 26 27 27 28 27 27 27 26 25 25 25 26 26 26 26 26 26 26 26 26 27 27 27 27 27 27
40 39 39 39 38 37 36 34 33 31 30 29 29 28 27 27 26 26 25 26 27 27 27 27 27 26 26 25 26 27 27 27 28 28 28 27 28 28 28 28 29 29 29
36 36 37 37 36 35 36 35 34 32 31 31 29 29 28 27 27 27 26 26 27 28 27 27 27 27 27 25 26 27 28 28 28 28 28 29 29 29 29 30 30 30 31
31 33 34 35 35 33 33 34 35 33 32 32 32 29 29 29 29 29 28 29 29 29 29 28 27 27 28 27 27 27 28 28 28 28 29 29 29 30 30 31 31 32 32
27 29 31 32 34 33 33 32 33 33 31 30 30 30 30 29 29 30 30 30 31 31 30 29 29 29 29 29 28 29 29 30 29 29 29 30 31 31 32 32 33 33 33
23 25 27 29 31 32 32 32 33 33 33 31 29 30 30 30 29 29 29 29 30 30 31 31 31 31 31 30 30 30 30 31 31 31 31 32 32 33 33 33 33 34 33
19 21 23 25 28 29 30 31 31 32 33 31 31 30 30 31 31 30 29 29 29 29 29 30 31 31 31 31 32 32 32 32 31 32 32 33 33 34 34 34 33 32 31
13 15 18 21 24 25 27 28 28 29 30 31 32 32 31 32 32 32 31 31 30 30 29 29 30 30 31 32 32 32 32 32 32 32 32 32 34 33 32 31 30 30 30
7 10 13 15 18 21 23 25 26 28 29 31 32 33 33 32 32 33 33 33 32 31 30 29 29 28 29 30 29 28 29 30 30 30 31 31 30 29 29 28 27 26 25
5 6 8 11 13 16 19 21 24 26 28 30 32 32 32 32 32 33 33 34 33 32 31 30 29 29 28 28 27 27 27 28 28 29 29 28 27 26 26 24 23 22 21
6 5 6 8 11 14 17 19 21 23 26 28 30 31 32 32 32 32 33 33 32 31 31 30 30 28 27 27 27 27 27 26 25 25 25 24 24 23 21 20 19 19 19
9 7 6 7 9 11 14 16 19 21 23 25 27 29 30 31 31 31 30 30 30 30 30 29 29 28 27 27 27 25 24 23 23 22 21 20 19 17 16 16 16 16 16
11 10 9 9 9 11 13 15 17 19 21 22 23 25 26 27 28 29 29 28 28 28 27 26 26 25 25 24 23 23 22 20 20 19 18 16 15 14 14 13 13 13 13
13 12 11 11 11 11 12 13 15 16 18 19 20 22 23 25 26 26 26 25 26 25 24 22 21 20 20 20 19 18 18 18 18 17 16 15 13 12 11 11 10 11 12
17 16 15 14 13 12 12 12 13 14 15 17 18 20 21 22 22 23 23 23 22 21 21 20 19 17 16 16 15 15 15 15 15 13 12 12 10 9 8 9 9 10 11
19 19 18 16 15 14 13 12 12 13 14 15 16 17 17 18 19 20 20 20 20 18 18 17 17 16 15 15 15 14 13 13 12 11 10 9 8 7 7 7 8 8 9
21 20 19 18 17 15 13 11 10 10 11 13 14 14 15 16 16 17 18 18 18 18 18 17 16 15 13 13 12 12 12 11 10 9 8 7 6 6 6 6 6 6 7
Wind_Direction
245 241 240 240 242 241 242 243 241 240 236 231 227 223 218 209 197 203 204 200 199 196 197 199 203 208 211 219 231 245 256 265 273 279 283 285 285 285 285 284 279 275 272
248 245 242 241 242 241 242 243 242 241 240 237 234 231 229 226 217 215 218 216 216 216 216 218 220 223 227 233 241 249 257 264 269 273 277 281 284 285 285 284 282 280 278
247 246 244 244 244 243 242 242 242 241 240 238 238 237 235 235 232 227 229 229 228 228 229 231 232 236 239 243 248 252 257 262 266 270 274 277 280 283 284 284 284 283 283
249 248 247 246 245 243 242 241 242 242 240 239 238 238 238 239 239 236 234 235 236 236 238 240 242 245 247 250 253 256 258 262 265 269 272 275 278 280 282 283 284 285 285
256 253 250 249 248 245 243 241 240 241 240 239 239 239 239 240 241 240 239 238 239 240 242 243 246 248 251 254 257 259 261 263 265 268 271 274 277 279 281 281 283 284 285
260 256 254 253 253 250 246 244 243 241 239 239 239 239 240 241 242 243 242 241 240 241 243 245 247 251 253 256 259 261 262 264 266 268 271 273 276 277 279 281 282 283 284
260 258 256 256 254 252 249 248 247 243 240 239 239 240 242 242 242 244 244 244 243 242 244 246 249 252 255 258 260 262 263 265 267 269 270 273 275 276 278 280 282 283 284
259 259 258 256 256 253 251 250 250 246 244 242 241 239 240 242 243 243 244 245 246 245 246 247 249 252 255 258 261 262 263 265 268 269 271 272 274 276 278 280 282 283 285
258 258 258 256 256 255 252 252 252 248 245 243 240 237 238 240 241 243 244 246 248 248 248 248 248 250 254 258 260 262 263 264 267 269 270 271 273 275 277 279 281 283 285
258 257 255 256 254 252 252 252 250 248 245 244 240 239 240 239 242 244 245 246 248 249 250 251 251 251 252 256 261 262 262 264 265 267 269 271 272 273 275 278 280 282 285
256 255 253 255 253 250 248 248 248 247 244 240 238 238 239 239 240 242 245 246 247 248 249 250 252 253 254 255 259 261 261 263 264 266 268 270 271 273 275 277 279 282 284
252 252 250 249 249 248 247 246 246 247 243 241 239 238 238 239 238 241 244 243 243 246 249 249 251 254 256 255 257 260 261 263 264 265 267 268 271 273 275 277 280 282 283
247 246 247 245 244 243 244 245 244 245 242 240 239 238 239 239 240 242 244 244 243 245 247 250 251 253 255 256 256 257 261 263 264 265 267 268 270 272 275 277 279 281 283
243 242 242 242 243 243 241 241 240 240 239 239 238 238 240 238 239 242 243 244 243 244 247 249 250 252 253 255 256 258 259 261 262 264 266 268 270 272 274 276 278 280 282
242 242 242 241 241 241 241 238 237 237 236 237 238 237 239 237 237 239 242 244 245 245 246 248 249 252 254 257 257 260 260 261 261 264 267 269 270 272 274 276 277 278 280
245 243 241 239 240 242 242 240 238 236 236 238 238 238 240 240 239 239 241 243 246 247 249 251 252 253 256 258 260 260 260 261 263 265 268 269 271 272 273 274 277 278 279
249 245 242 240 237 238 240 240 240 238 238 239 239 240 241 242 242 241 242 244 246 248 250 254 255 256 258 260 261 262 261 262 263 265 266 268 270 271 273 274 275 277 279
263 251 246 244 242 242 243 243 243 242 241 240 240 240 242 242 243 243 244 246 248 250 252 254 257 259 261 261 263 262 264 264 263 265 266 268 270 271 272 273 273 276 277
312 283 260 253 249 248 248 247 245 244 244 243 242 243 244 244 244 245 246 248 249 251 253 255 256 258 260 261 261 266 267 265 264 265 266 267 268 269 271 271 272 274 277
355 325 291 270 261 258 256 253 250 247 246 246 245 245 244 245 246 247 248 249 251 251 253 255 255 256 259 260 261 264 263 263 262 263 265 266 266 267 267 268 270 272 276
10 356 331 303 284 273 265 260 256 251 248 247 246 246 246 245 246 248 249 250 250 251 251 253 253 255 257 258 259 259 259 258 257 258 260 261 263 264 264 270 272 274 278
12 0 345 326 306 292 280 271 265 258 251 249 248 246 246 246 245 245 247 247 247 248 248 249 249 250 251 252 253 253 252 250 250 250 253 254 256 256 263 269 273 277 283
9 2 351 338 324 310 294 281 271 264 254 249 249 247 245 244 242 243 242 242 243 244 246 244 244 247 246 244 245 241 241 243 244 246 248 249 252 255 259 265 274 282 290
9 3 355 346 336 324 309 293 279 267 256 249 247 248 245 239 237 236 237 239 238 238 237 236 236 236 234 232 229 228 232 234 236 235 239 242 247 251 259 271 281 288 293
10 6 1 355 345 333 321 307 291 273 259 250 246 245 241 233 228 227 227 229 229 225 222 220 222 225 226 224 222 221 219 219 223 227 232 237 245 256 269 280 286 292 298
10 8 5 1 355 346 335 320 303 284 263 250 243 237 230 222 216 214 212 214 214 213 211 209 209 209 209 209 209 209 211 213 217 220 225 231 244 258 267 276 284 295 303
Height
5891 5893 5894 5896 5897 5898 5899 5900 5901 5902 5904 5905 5906 5906 5907 5908 5909 5910 5910 5911 5912 5913 5914 5915 5916 5917 5918 5919 5920 5921 5921 5922 5922 5923 5923 5923 5924 5924 5924 5924 5925 5925 5925
5884 5886 5889 5890 5891 5893 5895 5896 5898 5899 5900 5901 5903 5904 5905 5906 5907 5908 5909 5910 5911 5912 5913 5914 5915 5916 5917 5918 5919 5920 5920 5921 5921 5922 5922 5922 5923 5923 5923 5923 5923 5923 5923
5876 5879 5882 5884 5886 5887 5889 5891 5893 5895 5896 5898 5899 5901 5902 5903 5905 5906 5907 5908 5909 5910 5912 5913 5914 5915 5916 5917 5918 5919 5919 5920 5920 5921 5921 5921 5921 5921 5921 5922 5922 5922 5921
5869 5871 5875 5877 5879 5881 5883 5885 5887 5889 5891 5893 5895 5896 5898 5900 5901 5903 5904 5906 5907 5908 5909 5910 5912 5913 5914 5915 5916 5917 5918 5918 5919 5919 5920 5920 5920 5920 5920 5920 5920 5919 5919
5861 5864 5866 5869 5872 5874 5876 5878 5881 5883 5885 5887 5889 5891 5893 5895 5897 5899 5901 5902 5904 5905 5906 5908 5909 5910 5912 5913 5914 5914 5915 5916 5916 5917 5917 5918 5918 5918 5918 5917 5917 5917 5916
5853 5856 5857 5860 5863 5867 5869 5871 5873 5876 5878 5881 5883 5886 5888 5890 5892 5894 5896 5898 5900 5901 5902 5904 5905 5907 5908 5909 5911 5911 5912 5913 5913 5914 5914 5915 5915 5915 5915 5915 5914 5914 5913
5844 5847 5850 5852 5855 5858 5861 5864 5866 5868 5871 5874 5877 5880 5882 5884 5887 5889 5891 5893 5895 5897 5898 5899 5901 5903 5904 5905 5907 5908 5908 5909 5910 5910 5911 5911 5911 5911 5911 5911 5911 5910 5910
5835 5837 5840 5844 5847 5850 5853 5856 5859 5861 5864 5867 5870 5873 5875 5878 5880 5883 5885 5887 5889 5891 5894 5895 5897 5898 5899 5901 5902 5903 5904 5905 5905 5906 5907 5907 5907 5907 5907 5907 5907 5906 5906
5824 5828 5831 5834 5837 5841 5845 5848 5851 5854 5857 5859 5863 5866 5868 5871 5873 5876 5879 5881 5883 5885 5887 5889 5891 5893 5895 5896 5897 5898 5899 5900 5901 5901 5902 5902 5902 5903 5903 5903 5902 5902 5901
5813 5817 5821 5824 5829 5833 5836 5840 5844 5846 5849 5852 5855 5858 5861 5864 5867 5870 5872 5875 5876 5879 5881 5883 5885 5887 5890 5891 5891 5892 5893 5894 5895 5896 5896 5897 5897 5898 5898 5898 5897 5897 5896
5802 5806 5811 5815 5820 5824 5828 5832 5836 5838 5841 5844 5847 5850 5853 5857 5860 5862 5865 5868 5870 5872 5875 5877 5879 5881 5883 5886 5886 5887 5888 5888 5889 5890 5891 5891 5892 5892 5892 5892 5892 5891 5891
5792 5796 5801 5805 5810 5815 5819 5823 5827 5830 5833 5836 5840 5842 5846 5849 5853 5855 5858 5860 5863 5866 5868 5870 5872 5874 5876 5879 5881 5881 5881 5882 5883 5884 5885 5885 5886 5886 5886 5886 5886 5886 5885
5782 5787 5791 5796 5801 5805 5809 5813 5818 5821 5824 5828 5831 5835 5838 5841 5845 5847 5850 5853 5856 5859 5861 5864 5866 5868 5870 5872 5874 5874 5875 5876 5877 5878 5878 5879 5880 5880 5880 5880 5879 5879 5878
5775 5779 5783 5787 5792 5796 5800 5804 5808 5812 5815 5818 5822 5826 5829 5833 5836 5839 5842 5845 5848 5851 5854 5857 5859 5861 5863 5864 5866 5867 5869 5870 5870 5871 5872 5873 5873 5873 5873 5873 5872 5872 5871
5769 5772 5776 5779 5784 5788 5791 5795 5799 5802 5806 5809 5813 5817 5821 5824 5828 5831 5834 5837 5840 5843 5846 5849 5851 5853 5855 5857 5859 5860 5862 5863 5863 5864 5865 5866 5866 5866 5866 5866 5865 5865 5864
5764 5766 5769 5773 5776 5780 5783 5787 5789 5793 5797 5801 5805 5808 5812 5816 5819 5822 5826 5829 5832 5836 5838 5841 5843 5845 5847 5849 5851 5853 5854 5855 5856 5857 5858 5858 5858 5858 5858 5858 5858 5857 5857
5760 5761 5764 5767 5770 5773 5776 5779 5782 5785 5789 5792 5797 5801 5804 5808 5811 5814 5818 5821 5825 5828 5831 5833 5835 5837 5839 5841 5843 5845 5847 5848 5849 5849 5850 5850 5851 5851 5850 5850 5850 5850 5850
5757 5758 5760 5762 5764 5767 5769 5772 5775 5778 5781 5785 5789 5792 5796 5799 5803 5806 5810 5813 5816 5819 5823 5825 5827 5829 5831 5833 5835 5837 5838 5840 5841 5842 5842 5843 5843 5843 5844 5844 5844 5844 5844
5757 5757 5758 5759 5761 5762 5764 5766 5768 5771 5774 5777 5781 5784 5788 5791 5795 5798 5802 5805 5808 5811 5814 5817 5819 5822 5824 5826 5828 5830 5831 5832 5833 5834 5835 5836 5836 5837 5837 5837 5838 5838 5838
5757 5756 5757 5757 5758 5758 5759 5761 5762 5764 5767 5770 5773 5776 5779 5783 5786 5790 5793 5796 5800 5803 5806 5809 5812 5814 5817 5818 5821 5823 5824 5825 5826 5827 5828 5829 5830 5830 5831 5832 5833 5833 5833
5757 5756 5756 5755 5755 5755 5755 5756 5757 5758 5760 5762 5765 5768 5771 5774 5777 5781 5784 5788 5791 5795 5798 5801 5804 5807 5809 5811 5814 5815 5817 5818 5820 5821 5823 5824 5825 5825 5826 5827 5828 5828 5828
5758 5756 5755 5754 5752 5752 5751 5751 5751 5752 5754 5756 5758 5760 5763 5766 5770 5773 5777 5780 5784 5787 5791 5794 5797 5800 5802 5804 5807 5809 5811 5813 5815 5817 5818 5819 5821 5822 5822 5823 5824 5824 5824
5759 5756 5754 5752 5750 5748 5746 5746 5745 5746 5747 5749 5751 5754 5756 5759 5762 5766 5769 5773 5777 5781 5784 5788 5791 5793 5796 5798 5801 5803 5805 5808 5810 5812 5814 5815 5817 5818 5819 5820 5820 5820 5820
5759 5756 5753 5750 5747 5745 5743 5741 5741 5741 5742 5743 5745 5747 5750 5753 5756 5760 5763 5767 5771 5775 5779 5782 5785 5788 5791 5794 5797 5799 5802 5804 5806 5808 5811 5812 5813 5815 5816 5817 5817 5817 5816
5759 5755 5752 5748 5745 5742 5739 5737 5736 5736 5736 5738 5739 5742 5744 5747 5751 5754 5758 5762 5766 5771 5774 5778 5781 5784 5787 5791 5793 5796 5799 5801 5803 5806 5808 5810 5811 5812 5813 5813 5813 5813 5813
5760 5755 5751 5747 5743 5739 5736 5733 5731 5731 5731 5732 5734 5737 5740 5743 5746 5750 5754 5758 5763 5767 5771 5775 5778 5782 5785 5788 5791 5794 5796 5799 5801 5803 5805 5807 5808 5809 5810 5811 5810 5810 5810